Location: Bakhuizen
(52.8696°N, 5.4575°E)
Time: 04:11:07
(UTC+00:00)

Resurs 01 Rocket - Pass Details

Date: 11 May 2021
Orbit: 633 x 645 km, 97.9° (Epoch: 14 June)

Event Time Altitude Azimuth Distance (km) Brightness Sun altitude
Rises 21:40:25 0° 220° (SW) 2,947 4.8 -14.8°
Reaches altitude 10° 21:43:57 10° 250° (WSW) 2,042 4.3 -15.1°
Maximum altitude 21:45:49 12° 275° (W) 1,886 4.4 -15.2°
Drops below altitude 10° 21:47:42 10° 300° (WNW) 2,047 5.1 -15.3°
Sets 21:51:16 0° 330° (NNW) 2,961 6.9 -15.6°
